Current Version              Previous Version:    01  02  03  04  05  06  07  08  09  10  11  12  13  14  15  16  17  18  19  20  21  22  23  24  25  26  27  28  29  30  
   31  32  33  34  35  36  37  38  39  40  41  42  43  44  45  46  47  48  49  50  51  52  53  54  55  56  57  58  59  60  

[Printable]
749
ASUS44 KLUB 181010
RWRTX
WEST TEXAS WEATHER ROUNDUP
NATIONAL WEATHER SERVICE LUBBOCK TX
500 AM CDT FRI APR 18 2014

NOTE: "FAIR" INDICATES FEW OR NO CLOUDS BELOW 12,000 FEET WITH NO
SIGNIFICANT WEATHER AND/OR OBSTRUCTIONS TO VISIBILITY.

TXZ004-006>008-010-012-014-016-OKZ002-181100-
TEXAS PANHANDLE/OKLAHOMA PANHANDLE

CITY           SKY/WX    TMP DP  RH WIND       PRES   REMARKS
AMARILLO       CLOUDY    40  34  79 S9        30.23F WCI  34
BORGER         MOCLDY    45  38  76 S9        30.23S
CANADIAN       CLOUDY    49  44  85 S3        30.23F
DALHART        CLEAR     32  30  92 S7        30.21F FOG     WCI  26
DUMAS          CLEAR     33  32  94 S8        30.21S FOG     WCI  26
GUYMON         CLEAR     36  33  89 S10       30.19F WCI  28
HEREFORD       PTCLDY    33  29  88 S6        30.23F WCI  27
PAMPA          CLOUDY    45  42  91 S9        30.23S
PERRYTON       CLOUDY    47  44  89 S9        30.22S
$$

TXZ026-029-035-045-048-181100-
SOUTHERN PANHANDLE/SOUTH PLAINS/ROLLING PLAINS

CITY           SKY/WX    TMP DP  RH WIND       PRES   REMARKS
CHILDRESS      CLOUDY    49  45  86 N5        30.24S
SEMINOLE       CLOUDY    47  45  90 E7        30.22F
LUBBOCK        CLOUDY    45  41  86 SE7       30.22F
PLAINVIEW      CLOUDY    41  37  84 CALM      30.22S
SNYDER         CLOUDY    49  47  93 CALM      30.22F
$$

TXZ052-054-060>062-072-078-127-140-154-169-181100-
PERMIAN BASIN/CONCHO VALLEY/BIG COUNTRY/EDWARDS PLATEAU

CITY           SKY/WX    TMP DP  RH WIND       PRES   REMARKS
ABILENE        CLOUDY    51  49  92 NW6       30.21F FOG
BIG SPRING     CLOUDY    54  49  86 NE7       30.22F
BROWNWOOD      CLOUDY    55  55 100 NE5       30.19S FOG
JUNCTION       CLOUDY    61  57  87 E6        30.16S
MIDLAND        CLOUDY    52  48  86 E12       30.20S
ODESSA         CLOUDY    52  48  86 E12       30.20F
SAN ANGELO     CLOUDY    56  52  86 NE7       30.17F
SONORA         CLOUDY    59  55  88 E6        30.18S
SWEETWATER     CLOUDY    51  51 100 N6        30.24S
WINK           CLOUDY    54  49  83 E12       30.17F
$$

TXZ055-058-074-075-080-082-181100-
FAR WEST/SOUTHWEST MOUNTAINS/TRANS PECOS

CITY           SKY/WX    TMP DP  RH WIND       PRES   REMARKS
ALPINE         PTCLDY    54  47  79 E5        30.22F
DRYDEN           N/A     62  58  86 E10       30.13S
EL PASO        FAIR      59  35  40 CALM      30.09S
FORT STOCKTON  CLOUDY    57  51  80 E7        30.16S
GUADALUPE PASS CLOUDY    47  43  86 NE38      30.16F
MARFA          MOCLDY    45  36  70 NE7       30.19S
PECOS          CLOUDY    53  47  78 NE9       30.17S
PRESIDIO       FAIR      64  48  56 NE12G18   30.08S
$$

TXZ014-016-019-021>030-083-181100
TEXAS TECH WEST TEXAS MESONET/TEXAS PANHANDLE/NORTHERN SOUTH PLAINS

CITY           SKY/WX    TMP DP  RH WIND       PRES   REMARKS
ABERNATHY 5ENE   N/A     43  40  88 S3        30.23S
AMARILLO 9NNE    N/A     34  31  91 S3        30.22F
AMARILLO 7SSE    N/A     33  31  92 SW2       30.23F
AMHERST 1NE      N/A     34  32  94 SE5       30.23S WCI  30
BOOTLEG 11WNW    N/A     34  32  94 S7        30.22S WCI  28
CANADIAN 6E      N/A     47  41  78 S6        30.22S
CAPROCK CYN SP   N/A     46  43  89 N1        30.24S
CHILDRESS 2NNE   N/A     47  46  94 NW5       30.23S
CLARENDON 2WSW   N/A     46  44  94 S6        30.23S
CLAUDE 12SW      N/A     43  37  79 SE2       30.23F
DIMMITT 2NE      N/A     33  31  91 SE6       30.22F WCI  28
FLOYDADA 2NNE    N/A     43  42  95 CALM      30.22F
FRIONA 2NE       N/A     33  32  96 S2        30.23S
GOODLETT 3W      N/A     49  45  87 NW6       30.22F
HART 3N          N/A     38  36  90 E1        30.23F
HEREFORD 2NW     N/A     33  29  86 SW2       30.22S
MCLEAN 1E        N/A     44  43  98 S5        30.22S
MEMPHIS 1NE      N/A     47  45  93 CALM      30.24S
MULESHOE 2SSW    N/A     30  28  94 S5        30.23S WCI  25
OLTON 6S         N/A     35  33  91 SE2       30.23S
PALO DURO SP     N/A     40  33  76 CALM      30.24F
PAMPA 2E         N/A     44  44  99 S8        30.22S
PLAINVIEW 1S     N/A     40  37  87 CALM      30.22F
SILVERTON 7ESE   N/A     44  42  95 S3        30.23S
TULIA 2ENE       N/A     41  35  79 NW2       30.23F
TURKEY 2WSW      N/A     46  45  97 NE1       30.23S
UMBARGER 3NNE    N/A     31  28  88 S7        30.22F WCI  25
$$

TXZ033>036-039>041-045>048-181100
TEXAS TECH WEST TEXAS MESONET/SOUTH PLAINS

CITY           SKY/WX    TMP DP  RH WIND       PRES   REMARKS
AIKEN 3WSW       N/A     42  39  89 SE2       30.24F
ANDREWS 2NE      N/A     49  45  84 NE8       30.21S
ANTON 6SSW       N/A     40  35  80 E2        30.23S
BROWNFIELD 2S    N/A     43  39  85 E5        30.22F
DENVR CTY 7WNW   N/A     42  40  91 E9        30.21F
GAIL 2ESE        N/A     49  45  87 NW1       30.21F
LAMESA 2SE       N/A     48  45  90 E3        30.22F
LEVELLAND 4S     N/A     43  38  84 SE7       30.23S
LUBBOCK 3WNW     N/A     44  39  82 SE3       30.23F
MORTON 1ENE      N/A     35  33  90 S1        30.23S
ODONNELL 1N      N/A     46  41  82 SE2       30.22F
PLAINS 3N        N/A     39  37  91 E6        30.22F
RALLS 1SE        N/A     45  39  79 NE1       30.23S
REESE CENTER     N/A     42  38  84 E5        30.23S
SEAGRAVES 1SW    N/A     45  42  88 E6        30.22S
SEMINOLE 2NNE    N/A     46  43  90 E7        30.21F
SLATON 2NE       N/A     45  41  86 SE5       30.23S
SNYDER 3E        N/A     48  46  93 N2        30.21F
SUNDOWN 8SW      N/A     41  36  81 SE5       30.23S
TAHOKA 3NNE      N/A     42  38  86 E3        30.21F
WOLFFORTH 6SSW   N/A     44  39  83 E7        30.23S
$$

TXZ031-032-036>038-042>044-181100-
TEXAS TECH WEST TEXAS MESONET/ROLLING PLAINS

CITY           SKY/WX    TMP DP  RH WIND       PRES   REMARKS
ASPERMONT 3NE    N/A     48  48  99 NW5       30.22S
FLUVANNA 3WNW    N/A     48  44  87 N1        30.21F
GRAHAM 5SSW      N/A     48  43  84 E2        30.22F
GUTHRIE 10WSW    N/A     48  47  97 N5        30.22S
HASKELL 1NW      N/A     50  50  98 NW6       30.20F
JAYTON 1SSE      N/A     47  47  98 N5        30.22F
KNOX CITY 3NW    N/A     51  48  90 NW7       30.22S
LK A HENRY 1NW   N/A     50  46  87 NE1       30.21F
NORTHFIELD 1S    N/A     46  46  99 N2        30.23F
ODELL 4ENE       N/A     47  46  95 N6        30.23S
PADUCAH 10SW     N/A     47  46  97 N5        30.22F
POST 1NE         N/A     49  43  81 CALM      30.22F
RRING SPRGS 3N   N/A     46  46  99 N2        30.22F
SEYMOUR 3NW      N/A     54  52  93 NE3       30.21S
SPUR 1W          N/A     48  46  92 N3        30.21F
WEINERT 2NNE     N/A     53  53  97 N3        30.21F
WHITE RVR 6NE    N/A     48  43  83 N2        30.21F
$$

TXZ052-054-060>062-072-078-127-140-154-169-181100-
TEXAS TECH WEST TEXAS MESONET/PERMIAN BASIN/
CONCHO VALLEY/BIG COUNTRY/EDWARDS PLATEAU

CITY           SKY/WX    TMP DP  RH WIND       PRES   REMARKS
COYANOSA 2N      N/A     54  47  76 E9        30.17S
JUNCTION 1SSW    N/A     60  57  88 NE3       30.17S
MERTZON 3NNE     N/A     56  52  86 NE3       30.19F
SAN ANGELO 7NW   N/A     55  50  84 N3        30.18F
STRLNG CT 4WSW   N/A     46  44  93 NW3       30.20F
ST LAWRNCE 5SW   N/A     52  47  84 NE5       30.19F
SWEETWATR 11SW   N/A     49  48  97 N2        30.21F
WALL 1E          N/A     54  50  84 N3        30.19S
$$

TXZ055-058-074-075-080-082-181100-
TEXAS TECH WEST TEXAS MESONET/FAR WEST/SOUTHWEST MOUNTAINS/TRANS PECOS

CITY           SKY/WX    TMP DP  RH WIND       PRES   REMARKS
PRSMN GAP BBNP   N/A     59  54  83 N18       30.11S
$$